Location: Beetenbrück
(52.8113°N, 9.5946°E)
Time: 22:23:45
(UTC+00:00)

IRS-1C Rocket - Pass Details

Date: 14 April 2026
Orbit: 799 x 804 km, 98.7° (Epoch: 12 May)

Event Time Altitude Azimuth Distance (km) Brightness Sun altitude
Exits shadow 20:42:17 33° 161° (SSE) 1,341 4.7 -18.9°
Maximum altitude 20:44:48 88° 75° (ENE) 813 4.0 -19.1°
Drops below altitude 10° 20:50:07 10° 345° (NNW) 2,398 7.5 -19.7°
Sets 20:52:28 0° 345° (NNW) 3,333 8.5 -19.9°
